Starlink 4080

operational
NORAD ID: 52835 Int'l Des: 2022-062 Owner: SPXS Country: US Constellation: starlink
LEOCIRCULAR

Starlink 4080について

説明を読み込み中...

リアルタイム位置

3D地球を読み込み中...

次回通過

高度履歴

Altitude vs Time

uPlot chart will show altitude changes over time

軌道要素

1 52835U 22062F 25258.28751917 .00001176 00000-0 91962-4 0 9993
2 52835 53.2166 101.5330 0001332 86.8615 273.2530 15.08839813179302
Epoch: Sep 15, 2025 • Age: 16 hours

現在のステータス

高度 543.4 km
速度 7.60 km/s
衛星直下点 43.99°N, 112.49°W
打ち上げ日 Jun 17, 2022
運用期間 3.2 years
タイプ internet

技術仕様

分類 Payload
質量 297.00 kg
乾燥質量 275.00 kg
総質量 297.00 kg
長さ 0.20 m
直径 2.80 m
スパン 9.00 m
形状 Box + pan
製造者 SPXS
バスタイプ Starlink
フェーズステータス In Orbit
所有者/国 SPXS/US

大規模コンステレーション

Loading constellations...